SAS793 EKCH-LFMN

Flight info

Callsign SAS793
Flight time 2h 16m
Altitude 24000
Route NEXEN T503 MICOS/N0446F380 DCT TOLTA DCT BOMBI DCT GIGET DCT ABUKA DCT KRH DCT NATOR/N0450F370 DCT TRA DCT RIPUS DCT GERSA DCT SOSON DCT ODINA DCT ENOBA Z185 ASBOP/N0403F190 Z185 BORDI
Aircraft A319/M-SDE3FGHIRWY/LB1

Departure

Time 2026-04-26 14:54
Airport Copenhagen Kastrup Airport (EKCH)

Arrival

Time 2026-04-26 17:11
Airport Nice-Côte d'Azur Airport (LFMN)
Time Latitude Longitude Altitude Speed Heading
2026-04-26 14:29 55.62670 12.64437 19 ft 0 kts 101°
2026-04-26 14:44 55.62670 12.64435 19 ft 2 kts 101°
2026-04-26 14:44 55.62676 12.64391 19 ft 4 kts 104°
2026-04-26 14:44 55.62681 12.64346 17 ft 4 kts 82°
2026-04-26 14:44 55.62672 12.64321 19 ft 4 kts 22°
2026-04-26 14:45 55.62647 12.64303 17 ft 4 kts 23°
2026-04-26 14:45 55.62631 12.64290 18 ft 4 kts 30°
2026-04-26 14:45 55.62606 12.64262 18 ft 4 kts 33°
2026-04-26 14:45 55.62583 12.64235 18 ft 4 kts 34°
2026-04-26 14:46 55.62562 12.64211 18 ft 4 kts 34°
2026-04-26 14:46 55.62544 12.64180 19 ft 4 kts 72°
2026-04-26 14:46 55.62546 12.64138 17 ft 4 kts 119°
2026-04-26 14:46 55.62559 12.64100 19 ft 4 kts 123°
2026-04-26 14:47 55.62572 12.64064 19 ft 1 kts 123°
2026-04-26 14:47 55.62573 12.64063 19 ft 0 kts 123°
2026-04-26 14:48 55.62573 12.64064 19 ft 0 kts 123°
2026-04-26 14:48 55.62562 12.64095 19 ft 6 kts 122°
2026-04-26 14:49 55.62529 12.64184 17 ft 10 kts 122°
2026-04-26 14:49 55.62486 12.64304 17 ft 13 kts 125°
2026-04-26 14:49 55.62427 12.64432 17 ft 14 kts 141°
2026-04-26 14:49 55.62348 12.64431 17 ft 11 kts 192°
2026-04-26 14:50 55.62259 12.64392 16 ft 15 kts 195°
2026-04-26 14:50 55.62149 12.64422 17 ft 17 kts 166°
2026-04-26 14:50 55.62037 12.64461 19 ft 18 kts 170°
2026-04-26 14:50 55.61906 12.64506 17 ft 20 kts 170°
2026-04-26 14:51 55.61770 12.64550 18 ft 17 kts 168°
2026-04-26 14:51 55.61657 12.64549 18 ft 18 kts 211°
2026-04-26 14:51 55.61546 12.64424 17 ft 20 kts 212°
2026-04-26 14:51 55.61422 12.64278 19 ft 23 kts 212°
2026-04-26 14:52 55.61277 12.64117 17 ft 25 kts 214°
2026-04-26 14:52 55.61138 12.63955 17 ft 25 kts 212°
2026-04-26 14:52 55.60983 12.63774 18 ft 28 kts 214°
2026-04-26 14:52 55.60846 12.63616 17 ft 17 kts 213°
2026-04-26 14:53 55.60746 12.63667 17 ft 14 kts 136°
2026-04-26 14:53 55.60687 12.63813 18 ft 15 kts 102°
2026-04-26 14:53 55.60746 12.63980 19 ft 27 kts 42°
2026-04-26 14:53 55.61038 12.64430 17 ft 87 kts 40°
2026-04-26 14:54 55.61638 12.65357 16 ft 144 kts 41°
2026-04-26 14:54 55.62472 12.66639 382 ft 161 kts 40°
2026-04-26 14:54 55.63313 12.67946 1067 ft 161 kts 40°
2026-04-26 14:54 55.63881 12.68833 1504 ft 161 kts 40°
2026-04-26 14:55 55.64746 12.70181 1973 ft 175 kts 40°
2026-04-26 14:55 55.65724 12.71679 2312 ft 199 kts 39°
2026-04-26 14:55 55.67234 12.73932 2918 ft 229 kts 39°
2026-04-26 14:55 55.68470 12.75928 3465 ft 253 kts 49°
2026-04-26 14:56 55.69122 12.77751 3927 ft 264 kts 66°
2026-04-26 14:56 55.69546 12.80943 4865 ft 270 kts 89°
2026-04-26 14:56 55.69270 12.84188 5816 ft 273 kts 111°
2026-04-26 14:56 55.68281 12.87041 6771 ft 274 kts 135°
2026-04-26 14:57 55.66740 12.89002 7717 ft 274 kts 157°
2026-04-26 14:57 55.64930 12.90117 8653 ft 276 kts 167°
2026-04-26 14:57 55.63030 12.90608 9561 ft 278 kts 180°
2026-04-26 14:57 55.61101 12.90351 10418 ft 280 kts 192°
2026-04-26 14:58 55.59199 12.89350 10976 ft 296 kts 204°
2026-04-26 14:58 55.57350 12.87481 11276 ft 318 kts 217°
2026-04-26 14:58 55.55710 12.84736 11818 ft 327 kts 227°
2026-04-26 14:58 55.54145 12.81789 12642 ft 330 kts 227°
2026-04-26 14:59 55.52571 12.78900 13412 ft 333 kts 226°
2026-04-26 14:59 55.50931 12.75897 14139 ft 336 kts 227°
2026-04-26 14:59 55.49390 12.72835 14828 ft 340 kts 230°
2026-04-26 14:59 55.48355 12.70674 15300 ft 342 kts 230°
2026-04-26 15:00 55.46329 12.66360 16213 ft 347 kts 231°
2026-04-26 15:00 55.44789 12.63062 16874 ft 350 kts 231°
2026-04-26 15:00 55.43230 12.59742 17522 ft 354 kts 231°
2026-04-26 15:00 55.41644 12.56392 18158 ft 357 kts 230°
2026-04-26 15:01 55.40035 12.53028 18782 ft 361 kts 230°
2026-04-26 15:01 55.38411 12.49648 19392 ft 364 kts 230°
2026-04-26 15:01 55.36765 12.46226 20003 ft 368 kts 230°
2026-04-26 15:01 55.35106 12.42776 20602 ft 371 kts 230°
2026-04-26 15:02 55.33431 12.39301 21182 ft 374 kts 230°
2026-04-26 15:02 55.31738 12.35792 21746 ft 378 kts 230°
2026-04-26 15:02 55.30037 12.32272 22288 ft 381 kts 230°
2026-04-26 15:02 55.28309 12.28705 22822 ft 384 kts 230°
2026-04-26 15:03 55.26596 12.25178 23326 ft 387 kts 230°
2026-04-26 15:03 55.24843 12.21570 23824 ft 390 kts 230°
2026-04-26 15:03 55.23079 12.17940 24302 ft 393 kts 230°
2026-04-26 15:03 55.21295 12.14294 24783 ft 396 kts 228°
2026-04-26 15:04 55.19288 12.10969 25235 ft 399 kts 219°
2026-04-26 15:04 55.17046 12.08058 25679 ft 402 kts 217°
2026-04-26 15:04 55.14777 12.05160 26122 ft 405 kts 217°
2026-04-26 15:04 55.12492 12.02251 26555 ft 408 kts 217°
2026-04-26 15:05 55.10195 11.99327 26980 ft 410 kts 217°
2026-04-26 15:05 55.08663 11.97377 27254 ft 412 kts 217°
2026-04-26 15:05 55.05553 11.93421 27800 ft 416 kts 217°
2026-04-26 15:05 55.03211 11.90441 28203 ft 418 kts 217°
2026-04-26 15:06 55.00852 11.87442 28594 ft 421 kts 217°
2026-04-26 15:06 54.98476 11.84432 28984 ft 423 kts 216°
2026-04-26 15:06 54.96090 11.81417 29346 ft 426 kts 216°
2026-04-26 15:06 54.93685 11.78378 29704 ft 428 kts 216°
2026-04-26 15:07 54.88868 11.72302 30394 ft 433 kts 216°
2026-04-26 15:07 54.86431 11.69237 30714 ft 435 kts 216°
2026-04-26 15:07 54.83965 11.66149 31032 ft 437 kts 216°
2026-04-26 15:08 54.81490 11.63054 31341 ft 439 kts 216°
2026-04-26 15:08 54.79011 11.59948 31642 ft 441 kts 216°
2026-04-26 15:08 54.76517 11.56826 31972 ft 442 kts 216°
2026-04-26 15:08 54.74017 11.53701 32394 ft 441 kts 216°
2026-04-26 15:09 54.71534 11.50603 32808 ft 440 kts 216°
2026-04-26 15:09 54.69048 11.47506 33215 ft 439 kts 216°
2026-04-26 15:09 54.66571 11.44429 33611 ft 438 kts 216°
2026-04-26 15:09 54.64097 11.41365 34006 ft 438 kts 216°
2026-04-26 15:10 54.61622 11.38304 34396 ft 437 kts 216°
2026-04-26 15:10 54.59991 11.36287 34652 ft 436 kts 216°
2026-04-26 15:10 54.56707 11.32233 35166 ft 435 kts 216°
2026-04-26 15:10 54.54227 11.29180 35546 ft 434 kts 216°
2026-04-26 15:11 54.51768 11.26178 35907 ft 434 kts 216°
2026-04-26 15:11 54.49302 11.23185 36251 ft 433 kts 216°
2026-04-26 15:11 54.46879 11.20247 36573 ft 433 kts 216°
2026-04-26 15:11 54.44378 11.17247 36876 ft 433 kts 213°
2026-04-26 15:12 54.41711 11.15005 37140 ft 433 kts 200°
2026-04-26 15:12 54.38872 11.13274 37404 ft 434 kts 200°
2026-04-26 15:12 54.36018 11.11563 37669 ft 434 kts 200°
2026-04-26 15:12 54.33166 11.09870 37918 ft 434 kts 200°
2026-04-26 15:13 54.30305 11.08181 38172 ft 434 kts 200°
2026-04-26 15:13 54.27459 11.06504 38253 ft 434 kts 200°
2026-04-26 15:13 54.21740 11.03130 38266 ft 434 kts 200°
2026-04-26 15:14 54.16039 10.99744 38267 ft 434 kts 200°
2026-04-26 15:14 54.10333 10.96362 38266 ft 434 kts 200°
2026-04-26 15:15 54.04622 10.93005 38266 ft 434 kts 200°
2026-04-26 15:15 53.98909 10.89667 38266 ft 434 kts 200°
2026-04-26 15:16 53.93200 10.86333 38266 ft 434 kts 200°
2026-04-26 15:16 53.87488 10.83003 38264 ft 434 kts 200°
2026-04-26 15:17 53.82743 10.80236 38264 ft 434 kts 200°
2026-04-26 15:17 53.76107 10.76382 38264 ft 434 kts 200°
2026-04-26 15:18 53.70394 10.73085 38263 ft 434 kts 199°
2026-04-26 15:18 53.64685 10.69799 38262 ft 434 kts 199°
2026-04-26 15:19 53.58968 10.66513 38262 ft 434 kts 199°
2026-04-26 15:19 53.53252 10.63239 38261 ft 434 kts 199°
2026-04-26 15:20 53.47540 10.59989 38260 ft 434 kts 199°
2026-04-26 15:20 53.41826 10.56730 38260 ft 434 kts 199°
2026-04-26 15:21 53.36112 10.53477 38262 ft 434 kts 199°
2026-04-26 15:21 53.30388 10.50232 38262 ft 434 kts 199°
2026-04-26 15:22 53.24666 10.47010 38262 ft 434 kts 199°
2026-04-26 15:22 53.18950 10.43798 38261 ft 433 kts 199°
2026-04-26 15:23 53.13272 10.40605 38258 ft 433 kts 199°
2026-04-26 15:23 53.07545 10.37393 38258 ft 433 kts 199°
2026-04-26 15:24 53.01832 10.34192 38256 ft 433 kts 199°
2026-04-26 15:24 52.96123 10.30997 38256 ft 433 kts 199°
2026-04-26 15:25 52.91363 10.28371 38255 ft 433 kts 199°
2026-04-26 15:25 52.84672 10.24685 38254 ft 433 kts 199°
2026-04-26 15:26 52.78955 10.21526 38254 ft 433 kts 199°
2026-04-26 15:26 52.73289 10.18377 38254 ft 433 kts 199°
2026-04-26 15:27 52.67574 10.15241 38253 ft 433 kts 199°
2026-04-26 15:27 52.61849 10.12119 38253 ft 433 kts 199°
2026-04-26 15:28 52.56122 10.09019 38253 ft 433 kts 199°
2026-04-26 15:28 52.50403 10.05901 38253 ft 433 kts 199°
2026-04-26 15:29 52.44695 10.02765 38253 ft 433 kts 199°
2026-04-26 15:30 52.33249 9.96562 38255 ft 433 kts 199°
2026-04-26 15:30 52.27523 9.93490 38254 ft 433 kts 199°
2026-04-26 15:31 52.18937 9.88873 38254 ft 433 kts 199°
2026-04-26 15:32 52.11317 9.84795 38254 ft 433 kts 199°
2026-04-26 15:32 52.04618 9.81220 38255 ft 433 kts 199°
2026-04-26 15:33 51.98924 9.78206 38255 ft 433 kts 199°
2026-04-26 15:33 51.93191 9.75170 38255 ft 433 kts 199°
2026-04-26 15:34 51.87451 9.72136 38256 ft 433 kts 199°
2026-04-26 15:34 51.81732 9.69125 38256 ft 433 kts 199°
2026-04-26 15:35 51.75987 9.66100 38257 ft 433 kts 199°
2026-04-26 15:35 51.70247 9.63084 38257 ft 433 kts 199°
2026-04-26 15:36 51.64502 9.60077 38257 ft 433 kts 199°
2026-04-26 15:36 51.58763 9.57087 38257 ft 433 kts 199°
2026-04-26 15:37 51.53072 9.54114 38436 ft 434 kts 199°
2026-04-26 15:37 51.50186 9.52613 38637 ft 435 kts 199°
2026-04-26 15:37 51.47270 9.51103 38852 ft 434 kts 199°
2026-04-26 15:38 51.44426 9.49635 39047 ft 435 kts 198°
2026-04-26 15:38 51.41553 9.48155 39221 ft 435 kts 198°
2026-04-26 15:38 51.35790 9.45193 39268 ft 435 kts 198°
2026-04-26 15:39 51.30020 9.42221 39265 ft 435 kts 199°
2026-04-26 15:39 51.26173 9.40232 39266 ft 435 kts 199°
2026-04-26 15:40 51.18507 9.36292 39268 ft 435 kts 198°
2026-04-26 15:40 51.12745 9.33355 39140 ft 435 kts 198°
2026-04-26 15:41 51.09863 9.31884 38961 ft 434 kts 198°
2026-04-26 15:41 51.06988 9.30417 38790 ft 434 kts 198°
2026-04-26 15:41 51.04113 9.28954 38612 ft 434 kts 198°
2026-04-26 15:41 51.01244 9.27498 38444 ft 434 kts 198°
2026-04-26 15:42 50.98359 9.26038 38249 ft 434 kts 198°
2026-04-26 15:42 50.95492 9.24588 38266 ft 433 kts 198°
2026-04-26 15:42 50.89746 9.21686 38266 ft 434 kts 198°
2026-04-26 15:43 50.83991 9.18782 38265 ft 434 kts 198°
2026-04-26 15:44 50.75397 9.14465 38266 ft 434 kts 198°
2026-04-26 15:44 50.66755 9.10141 38266 ft 434 kts 198°
2026-04-26 15:45 50.59091 9.06320 38264 ft 434 kts 198°
2026-04-26 15:46 50.50462 9.02026 38263 ft 434 kts 198°
2026-04-26 15:46 50.45676 8.99660 38264 ft 434 kts 198°
2026-04-26 15:47 50.36075 8.94914 38262 ft 434 kts 198°
2026-04-26 15:48 50.30361 8.92093 38262 ft 434 kts 198°
2026-04-26 15:48 50.24608 8.89267 38261 ft 433 kts 198°
2026-04-26 15:49 50.18843 8.86450 38261 ft 434 kts 198°
2026-04-26 15:49 50.13074 8.83644 38263 ft 434 kts 198°
2026-04-26 15:50 50.07317 8.80844 38262 ft 434 kts 198°
2026-04-26 15:50 50.01389 8.79132 38260 ft 434 kts 188°
2026-04-26 15:51 49.95397 8.77895 38259 ft 434 kts 188°
2026-04-26 15:51 49.89405 8.76657 38260 ft 435 kts 188°
2026-04-26 15:52 49.83401 8.75400 38263 ft 435 kts 188°
2026-04-26 15:52 49.77406 8.74155 38265 ft 435 kts 188°
2026-04-26 15:53 49.71402 8.72922 38265 ft 435 kts 188°
2026-04-26 15:53 49.65416 8.71698 38264 ft 435 kts 188°
2026-04-26 15:54 49.59460 8.70511 38263 ft 435 kts 188°
2026-04-26 15:54 49.53447 8.69309 38263 ft 435 kts 188°
2026-04-26 15:55 49.47443 8.68099 38263 ft 435 kts 188°
2026-04-26 15:55 49.41443 8.66896 38264 ft 435 kts 188°
2026-04-26 15:56 49.35453 8.65677 38264 ft 435 kts 188°
2026-04-26 15:56 49.29438 8.64453 38265 ft 435 kts 188°
2026-04-26 15:57 49.23437 8.63242 38265 ft 435 kts 188°
2026-04-26 15:57 49.17435 8.62036 38265 ft 435 kts 188°
2026-04-26 15:58 49.11441 8.60839 38266 ft 435 kts 188°
2026-04-26 15:58 49.05436 8.59648 38266 ft 435 kts 188°
2026-04-26 15:59 48.99466 8.58462 38265 ft 435 kts 189°
2026-04-26 15:59 48.93519 8.56822 38265 ft 434 kts 193°
2026-04-26 16:00 48.87641 8.54762 38262 ft 434 kts 194°
2026-04-26 16:00 48.81749 8.52713 38263 ft 434 kts 193°
2026-04-26 16:01 48.75840 8.50802 38261 ft 434 kts 192°
2026-04-26 16:01 48.69934 8.48930 38261 ft 434 kts 193°
2026-04-26 16:02 48.64022 8.47039 38263 ft 434 kts 193°
2026-04-26 16:02 48.58108 8.45153 38263 ft 434 kts 193°
2026-04-26 16:03 48.52199 8.43276 38261 ft 434 kts 193°
2026-04-26 16:03 48.46288 8.41398 38263 ft 434 kts 193°
2026-04-26 16:04 48.40375 8.39512 38264 ft 434 kts 193°
2026-04-26 16:04 48.34500 8.37638 38265 ft 434 kts 193°
2026-04-26 16:05 48.28581 8.35768 38266 ft 434 kts 193°
2026-04-26 16:05 48.22669 8.33909 38263 ft 434 kts 192°
2026-04-26 16:06 48.16701 8.32612 38263 ft 435 kts 181°
2026-04-26 16:06 48.10680 8.33663 38259 ft 436 kts 172°
2026-04-26 16:07 48.04697 8.35115 38258 ft 436 kts 172°
2026-04-26 16:07 47.98702 8.36559 38259 ft 437 kts 172°
2026-04-26 16:08 47.93064 8.37912 38251 ft 437 kts 172°
2026-04-26 16:08 47.87062 8.39358 38256 ft 437 kts 172°
2026-04-26 16:09 47.81140 8.40786 38259 ft 437 kts 172°
2026-04-26 16:09 47.75123 8.42223 38261 ft 437 kts 172°
2026-04-26 16:10 47.69157 8.43640 38265 ft 437 kts 172°
2026-04-26 16:10 47.63122 8.44754 38266 ft 437 kts 175°
2026-04-26 16:11 47.57066 8.45538 38268 ft 437 kts 176°
2026-04-26 16:11 47.51017 8.46317 38270 ft 437 kts 175°
2026-04-26 16:12 47.44961 8.47199 38271 ft 437 kts 175°
2026-04-26 16:12 47.35893 8.48563 38270 ft 437 kts 175°
2026-04-26 16:13 47.29853 8.49448 38271 ft 437 kts 175°
2026-04-26 16:13 47.23793 8.50325 38270 ft 437 kts 175°
2026-04-26 16:14 47.17746 8.51204 38271 ft 437 kts 175°
2026-04-26 16:15 47.08704 8.52512 38270 ft 437 kts 175°
2026-04-26 16:15 47.02661 8.53385 38270 ft 436 kts 175°
2026-04-26 16:16 46.93672 8.54698 38269 ft 437 kts 175°
2026-04-26 16:16 46.87631 8.55567 38269 ft 436 kts 175°
2026-04-26 16:17 46.81573 8.56431 38268 ft 436 kts 175°
2026-04-26 16:17 46.75532 8.57292 38267 ft 436 kts 175°
2026-04-26 16:18 46.66463 8.58589 37866 ft 435 kts 175°
2026-04-26 16:19 46.60481 8.59434 37385 ft 435 kts 175°
2026-04-26 16:19 46.57468 8.59859 37223 ft 434 kts 175°
2026-04-26 16:20 46.48440 8.61150 37266 ft 435 kts 175°
2026-04-26 16:20 46.39415 8.62435 37261 ft 429 kts 175°
2026-04-26 16:21 46.33583 8.63255 37265 ft 414 kts 175°
2026-04-26 16:21 46.27884 8.64061 37266 ft 410 kts 175°
2026-04-26 16:22 46.22206 8.64858 37266 ft 409 kts 175°
2026-04-26 16:22 46.16534 8.65642 37266 ft 409 kts 175°
2026-04-26 16:23 46.10879 8.66297 37267 ft 416 kts 181°
2026-04-26 16:23 46.05026 8.65371 37267 ft 429 kts 189°
2026-04-26 16:24 45.99084 8.64143 37266 ft 432 kts 189°
2026-04-26 16:24 45.93133 8.62940 37266 ft 433 kts 189°
2026-04-26 16:25 45.87155 8.61732 37266 ft 433 kts 189°
2026-04-26 16:25 45.81179 8.60527 37265 ft 433 kts 189°
2026-04-26 16:26 45.76229 8.59526 37263 ft 433 kts 189°
2026-04-26 16:26 45.69264 8.58109 37261 ft 433 kts 189°
2026-04-26 16:27 45.63306 8.56895 37261 ft 433 kts 189°
2026-04-26 16:27 45.57380 8.55700 37259 ft 432 kts 189°
2026-04-26 16:28 45.51423 8.54508 37258 ft 432 kts 189°
2026-04-26 16:28 45.45457 8.53311 37257 ft 432 kts 189°
2026-04-26 16:29 45.39500 8.52111 37256 ft 432 kts 189°
2026-04-26 16:29 45.33548 8.50926 37254 ft 432 kts 189°
2026-04-26 16:30 45.27596 8.49743 37253 ft 432 kts 189°
2026-04-26 16:30 45.21643 8.48564 37252 ft 432 kts 189°
2026-04-26 16:31 45.15698 8.47385 37252 ft 432 kts 189°
2026-04-26 16:31 45.09736 8.46209 37252 ft 432 kts 189°
2026-04-26 16:32 45.04785 8.45227 37253 ft 432 kts 189°
2026-04-26 16:32 44.97822 8.43852 37254 ft 432 kts 189°
2026-04-26 16:33 44.91904 8.42690 37255 ft 432 kts 189°
2026-04-26 16:33 44.85950 8.41513 37253 ft 433 kts 189°
2026-04-26 16:34 44.79978 8.40334 37251 ft 434 kts 189°
2026-04-26 16:34 44.73992 8.39167 37252 ft 434 kts 188°
2026-04-26 16:35 44.71014 8.38588 36942 ft 433 kts 188°
2026-04-26 16:35 44.67981 8.37999 35719 ft 444 kts 188°
2026-04-26 16:35 44.64896 8.37398 34594 ft 450 kts 189°
2026-04-26 16:35 44.61910 8.36309 34064 ft 439 kts 205°
2026-04-26 16:36 44.59345 8.34101 33559 ft 430 kts 222°
2026-04-26 16:36 44.57405 8.30967 32942 ft 424 kts 239°
2026-04-26 16:36 44.56269 8.27198 32309 ft 419 kts 257°
2026-04-26 16:36 44.56039 8.23169 31686 ft 415 kts 275°
2026-04-26 16:37 44.56401 8.20521 31280 ft 418 kts 287°
2026-04-26 16:37 44.57678 8.16862 30666 ft 424 kts 306°
2026-04-26 16:37 44.59753 8.13927 30270 ft 424 kts 323°
2026-04-26 16:37 44.62368 8.12052 29886 ft 423 kts 342°
2026-04-26 16:38 44.66223 8.11484 29393 ft 423 kts
2026-04-26 16:38 44.69053 8.12547 29016 ft 422 kts 24°
2026-04-26 16:38 44.70784 8.13901 28762 ft 421 kts 35°
2026-04-26 16:38 44.72913 8.16690 28389 ft 419 kts 52°
2026-04-26 16:39 44.74355 8.20125 28226 ft 412 kts 68°
2026-04-26 16:39 44.75076 8.23993 28264 ft 409 kts 84°
2026-04-26 16:39 44.75029 8.27985 28265 ft 408 kts 100°
2026-04-26 16:39 44.74207 8.31776 28265 ft 406 kts 116°
2026-04-26 16:40 44.72675 8.35095 28264 ft 404 kts 133°
2026-04-26 16:40 44.70574 8.37674 28266 ft 402 kts 148°
2026-04-26 16:40 44.68059 8.39356 28265 ft 400 kts 164°
2026-04-26 16:40 44.65335 8.40014 28266 ft 398 kts 180°
2026-04-26 16:41 44.62602 8.39643 28265 ft 396 kts 192°
2026-04-26 16:41 44.59884 8.38883 28266 ft 397 kts 192°
2026-04-26 16:41 44.54465 8.37371 28266 ft 397 kts 192°
2026-04-26 16:42 44.49055 8.35872 27831 ft 399 kts 192°
2026-04-26 16:42 44.46308 8.35118 27431 ft 398 kts 192°
2026-04-26 16:42 44.43618 8.34380 27216 ft 391 kts 192°
2026-04-26 16:43 44.40960 8.33650 26948 ft 387 kts 192°
2026-04-26 16:43 44.38327 8.32926 26678 ft 383 kts 192°
2026-04-26 16:43 44.35735 8.32213 26408 ft 380 kts 192°
2026-04-26 16:43 44.33197 8.31241 26147 ft 376 kts 202°
2026-04-26 16:44 44.30867 8.29640 25898 ft 371 kts 213°
2026-04-26 16:44 44.28813 8.27486 25521 ft 370 kts 223°
2026-04-26 16:44 44.27085 8.24817 25107 ft 371 kts 234°
2026-04-26 16:44 44.25619 8.21856 24706 ft 371 kts 236°
2026-04-26 16:45 44.24155 8.18883 24288 ft 372 kts 236°
2026-04-26 16:45 44.22685 8.15913 23861 ft 373 kts 236°
2026-04-26 16:45 44.21208 8.12942 23425 ft 373 kts 235°
2026-04-26 16:45 44.19722 8.09963 22983 ft 374 kts 235°
2026-04-26 16:46 44.18234 8.06984 22526 ft 374 kts 235°
2026-04-26 16:46 44.16767 8.04049 22078 ft 375 kts 235°
2026-04-26 16:46 44.15275 8.01061 21596 ft 375 kts 235°
2026-04-26 16:46 44.13783 7.98079 21114 ft 376 kts 235°
2026-04-26 16:47 44.12290 7.95095 20705 ft 374 kts 235°
2026-04-26 16:47 44.10819 7.92154 20328 ft 371 kts 235°
2026-04-26 16:47 44.09344 7.89204 19833 ft 367 kts 235°
2026-04-26 16:47 44.07893 7.86308 19121 ft 362 kts 235°
2026-04-26 16:48 44.06470 7.83470 18630 ft 351 kts 235°
2026-04-26 16:48 44.05098 7.80742 18183 ft 340 kts 235°
2026-04-26 16:48 44.03759 7.78079 17740 ft 330 kts 235°
2026-04-26 16:48 44.02439 7.75584 17433 ft 318 kts 228°
2026-04-26 16:49 44.00752 7.73689 17364 ft 306 kts 209°
2026-04-26 16:49 43.98779 7.72442 17211 ft 322 kts 204°
2026-04-26 16:49 43.96689 7.71206 16965 ft 330 kts 204°
2026-04-26 16:49 43.94564 7.69962 16577 ft 332 kts 204°
2026-04-26 16:50 43.92470 7.68744 15947 ft 330 kts 204°
2026-04-26 16:50 43.90361 7.67521 15321 ft 326 kts 204°
2026-04-26 16:50 43.88283 7.66317 14693 ft 322 kts 204°
2026-04-26 16:50 43.86236 7.65129 14068 ft 319 kts 204°
2026-04-26 16:51 43.84176 7.63934 13432 ft 316 kts 204°
2026-04-26 16:51 43.82157 7.62766 13014 ft 313 kts 204°
2026-04-26 16:51 43.80152 7.61605 12763 ft 312 kts 204°
2026-04-26 16:51 43.78157 7.60451 12510 ft 310 kts 204°
2026-04-26 16:52 43.76165 7.59297 12265 ft 309 kts 204°
2026-04-26 16:52 43.74853 7.58536 12096 ft 308 kts 204°
2026-04-26 16:52 43.72173 7.57153 11756 ft 308 kts 192°
2026-04-26 16:52 43.70047 7.57143 11464 ft 307 kts 170°
2026-04-26 16:53 43.68025 7.58092 11250 ft 308 kts 161°
2026-04-26 16:53 43.65927 7.58529 11262 ft 306 kts 185°
2026-04-26 16:53 43.63906 7.57718 11264 ft 304 kts 210°
2026-04-26 16:53 43.62242 7.55946 11268 ft 303 kts 223°
2026-04-26 16:54 43.60703 7.54014 11266 ft 303 kts 223°
2026-04-26 16:54 43.59151 7.52045 11266 ft 303 kts 223°
2026-04-26 16:54 43.57601 7.50072 11266 ft 303 kts 223°
2026-04-26 16:54 43.56056 7.48104 11266 ft 303 kts 223°
2026-04-26 16:55 43.54501 7.46124 11128 ft 304 kts 223°
2026-04-26 16:55 43.52967 7.44169 10742 ft 296 kts 223°
2026-04-26 16:55 43.51473 7.42268 10368 ft 287 kts 223°
2026-04-26 16:55 43.50025 7.40426 9990 ft 280 kts 223°
2026-04-26 16:56 43.47173 7.36801 9234 ft 276 kts 223°
2026-04-26 16:56 43.45773 7.35022 8861 ft 273 kts 223°
2026-04-26 16:56 43.44385 7.33261 8485 ft 271 kts 223°
2026-04-26 16:57 43.43003 7.31507 8112 ft 269 kts 223°
2026-04-26 16:57 43.41628 7.29763 7736 ft 268 kts 223°
2026-04-26 16:57 43.38896 7.26301 6984 ft 266 kts 223°
2026-04-26 16:58 43.37538 7.24581 6611 ft 265 kts 223°
2026-04-26 16:58 43.36640 7.23444 6359 ft 264 kts 223°
2026-04-26 16:58 43.33511 7.19485 5489 ft 262 kts 223°
2026-04-26 16:59 43.32175 7.17796 5109 ft 261 kts 223°
2026-04-26 16:59 43.29521 7.14441 4353 ft 259 kts 224°
2026-04-26 17:00 43.28315 7.10108 4109 ft 254 kts 279°
2026-04-26 17:00 43.30186 7.06220 4108 ft 239 kts 313°
2026-04-26 17:00 43.31326 7.04631 4110 ft 229 kts 313°
2026-04-26 17:01 43.32447 7.03086 4111 ft 227 kts 313°
2026-04-26 17:01 43.33562 7.01554 4109 ft 227 kts 313°
2026-04-26 17:01 43.34677 7.00026 4111 ft 225 kts 313°
2026-04-26 17:01 43.35759 6.98548 4110 ft 213 kts 313°
2026-04-26 17:02 43.36793 6.97141 4112 ft 207 kts 313°
2026-04-26 17:02 43.37814 6.95752 4110 ft 206 kts 313°
2026-04-26 17:02 43.38917 6.94540 4100 ft 200 kts 332°
2026-04-26 17:02 43.40211 6.94156 4128 ft 185 kts 359°
2026-04-26 17:03 43.41467 6.94393 4117 ft 182 kts
2026-04-26 17:03 43.42715 6.94653 4113 ft 181 kts
2026-04-26 17:03 43.43964 6.94912 4110 ft 181 kts
2026-04-26 17:03 43.45207 6.95170 4110 ft 181 kts
2026-04-26 17:04 43.46422 6.95528 4111 ft 175 kts 17°
2026-04-26 17:04 43.47456 6.96271 4110 ft 165 kts 33°
2026-04-26 17:04 43.48311 6.97320 4117 ft 164 kts 44°
2026-04-26 17:04 43.49122 6.98428 4114 ft 164 kts 44°
2026-04-26 17:05 43.49926 6.99522 4108 ft 157 kts 44°
2026-04-26 17:05 43.50658 7.00518 4100 ft 142 kts 44°
2026-04-26 17:05 43.51362 7.01476 3932 ft 141 kts 44°
2026-04-26 17:05 43.52052 7.02420 3735 ft 140 kts 44°
2026-04-26 17:06 43.52741 7.03361 3544 ft 139 kts 44°
2026-04-26 17:06 43.53427 7.04295 3356 ft 139 kts 44°
2026-04-26 17:06 43.54112 7.05230 3168 ft 138 kts 44°
2026-04-26 17:06 43.54797 7.06163 2983 ft 138 kts 44°
2026-04-26 17:07 43.55466 7.07079 2796 ft 138 kts 44°
2026-04-26 17:07 43.56154 7.08021 2617 ft 137 kts 44°
2026-04-26 17:07 43.56827 7.08945 2434 ft 137 kts 44°
2026-04-26 17:07 43.57496 7.09859 2259 ft 137 kts 44°
2026-04-26 17:08 43.58169 7.10780 2075 ft 136 kts 44°
2026-04-26 17:08 43.58840 7.11700 1894 ft 136 kts 43°
2026-04-26 17:08 43.59508 7.12617 1714 ft 135 kts 44°
2026-04-26 17:08 43.60176 7.13534 1530 ft 135 kts 44°
2026-04-26 17:09 43.60842 7.14448 1357 ft 135 kts 44°
2026-04-26 17:09 43.61290 7.15062 1236 ft 135 kts 44°
2026-04-26 17:09 43.62166 7.16273 994 ft 134 kts 44°
2026-04-26 17:09 43.62826 7.17177 818 ft 133 kts 43°
2026-04-26 17:10 43.63490 7.18071 627 ft 133 kts 43°
2026-04-26 17:10 43.64146 7.18963 399 ft 132 kts 44°
2026-04-26 17:10 43.64794 7.19857 198 ft 131 kts 45°
2026-04-26 17:10 43.65431 7.20744 43 ft 129 kts 44°
2026-04-26 17:11 43.65977 7.21497 21 ft 89 kts 45°
2026-04-26 17:11 43.66291 7.21929 23 ft 38 kts 39°
2026-04-26 17:11 43.66458 7.22028 22 ft 23 kts 20°
2026-04-26 17:11 43.66533 7.22048 21 ft 3 kts 336°
2026-04-26 17:12 43.66552 7.21986 21 ft 2 kts 259°
2026-04-26 17:12 43.66538 7.21951 23 ft 4 kts 231°
2026-04-26 17:13 43.66397 7.21757 21 ft 22 kts 225°
2026-04-26 17:13 43.66276 7.21589 21 ft 26 kts 225°
2026-04-26 17:13 43.66053 7.21283 21 ft 23 kts 224°
2026-04-26 17:14 43.65959 7.21153 21 ft 21 kts 224°
2026-04-26 17:14 43.65794 7.20893 21 ft 15 kts 277°
2026-04-26 17:14 43.65883 7.20846 21 ft 13 kts 350°
2026-04-26 17:15 43.65951 7.20758 21 ft 4 kts 281°
2026-04-26 17:15 43.65956 7.20728 21 ft 2 kts 281°
2026-04-26 17:15 43.65956 7.20724 21 ft 0 kts 281°